STARLINK-34303, 64168

Orbit data source: Space-Track

STARLINK-34303, 64168 is a payload satellite owned by SpaceX/Seattle (US) in SSO that was launched on Tue, 27 May 2025 UTC via an FALCON 9 launch vehicle from the Air Force Western Test Range (AFWTR). Payload-class satellites include a variety of spacecraft equipped with specific instruments for various scientific and technological missions. These include communications satellites like Starlink; space stations such as the ISS; scientific satellites like the Hubble; Earth observation satellites from companies like Planet Labs, Umbra, and HawkEye 360; GPS; miniature CubeSats for education and research; and military/defense satellites.

Loading next visibility...
Identifier
64168, 2025-112Y
Orbit
SSO
Country
Flag of USUS
Related business
Manufacturer
SpaceX/Seattle
Mission
Operational Commercial Communications
Bus & Motor
STARLINK V2MO, Unknown motor
Mass
575 kg wet, ~530 kg dry
Launch date (UTC)
2025-05-27 (1 year ago)
Launch vehicle
FALCON 9
Launch site
Air Force Western Test Range (AFWTR)
Object type
Payload
Rocket body
Debris
Shape & HBR
Box + 2 Pan, 17.7 m
Radar Cross Section
36.964 m², Large (>1 m²)

Expand to show TLE details & history
Last TLE update: 15 hours ago

TLE from 15 hours ago
0 STARLINK-34303
1 64168U 25112Y   26145.12645587 -.00002883  00000-0 -19585-3 0  9996
2 64168  97.4525 196.5620 0001926 138.6154 221.5219 15.05647530 54810
Epoch: 2026-05-25T03:02Z
TLE epoch observation values (Epoch: 2026-05-25T03:02:05.787Z)
Latitude
-0.00004°
Longitude
-91.68083°
Altitude
553.588 km
Speed
7.584 km/s
True Right ascension
13h 06m 14s
True Declination
0° 00' 00"
Sunlit
Object was in full shadow at epoch
Visualization orbit readout
Latitude
Unknown
Longitude
Unknown
Altitude
Unknown
Speed
Unknown
Apparent Right ascension
Unknown
Apparent Declination
Unknown
Sunlit
N/A
Visualization observer readout
Local Sidereal Time
02:50:27
Azimuth
Unknown
Elevation
Unknown
Doppler factor
Unknown
Orbital elements
Apogee altitude
547.839 km
Perigee altitude
545.172 km
Semi-major axis
6,924.643 km
Eccentricity
0.00019
Inclination
97.4525°
RAAN
196.562°
Arg. of periapsis
138.6154°
True anomaly
221.50727°
Mean anomaly
221.5219°
Eccentric anomaly
221.51459°
Mean motion
3.76658 °/min
Orbital period
95.58 mins
BSTAR
-0.00019585
Loading maneuver chart data...
Computing Atmospheric mass density...
Loading historical data...
Loading historical data...
Loading historical data...
Loading historical data...
Loading historical data...
Loading historical data...
Loading historical data...

Documentation

Showing up to 5 results
|